When you browse on this site, cookies collect data to enhance your experience and personalize the content and advertising you see.
Visit our Privacy Policy to learn more. By continuing to use the site, you agree to this use of cookies and data.
  • In Sweden
  • List of Countries
  • For 7 days
  • Water Temperature
  • Satellite Maps
  • Weather Map
  • Weather Widgets
  • user-avatar
    Login

    Hourly Weather Satif

    Today, 17 July, Wednesday

    Time Temperature Precipitation Wind Pressure Humidity
    00:00 +20°C° 0 mm 1 mps 673 mmHg 55%
    01:00 +20°C° 0 mm 1 mps 672 mmHg 55%
    02:00 +19°C° 0 mm 1 mps 672 mmHg 55%
    03:00 +19°C° 0 mm 1 mps 671 mmHg 56%
    04:00 +20°C° 0 mm 1 mps 672 mmHg 49%
    05:00 +21°C° 0 mm 1 mps 672 mmHg 43%
    06:00 +23°C° 0 mm 1 mps 673 mmHg 36%
    07:00 +25°C° 0 mm 2 mps 674 mmHg 32%
    08:00 +27°C° 0 mm 2 mps 674 mmHg 27%
    09:00 +29°C° 0 mm 3 mps 675 mmHg 23%
    10:00 +32°C° 0 mm 4 mps 675 mmHg 21%
    11:00 +33°C° 0 mm 4 mps 675 mmHg 19%
    12:00 +35°C° 0 mm 4 mps 675 mmHg 17%
    13:00 +35°C° 0 mm 4 mps 675 mmHg 17%
    14:00 +35°C° 0 mm 5 mps 674 mmHg 16%
    15:00 +35°C° 0 mm 5 mps 674 mmHg 16%
    16:00 +35°C° 0 mm 4 mps 674 mmHg 18%
    17:00 +34°C° 0 mm 4 mps 673 mmHg 21%
    18:00 +33°C° 0 mm 4 mps 673 mmHg 23%
    19:00 +30°C° 0.4 mm 3 mps 673 mmHg 28%
    20:00 +28°C° 0.4 mm 3 mps 673 mmHg 32%
    21:00 +27°C° 0.4 mm 2 mps 673 mmHg 37%
    22:00 +26°C° 0.1 mm 2 mps 672 mmHg 37%
    23:00 +26°C° 0.1 mm 2 mps 672 mmHg 38%

    Tomorrow, 18 July, Thursday

    Time Temperature Precipitation Wind Pressure Humidity
    00:00 +26°C° 0.1 mm 2 mps 672 mmHg 39%
    01:00 +25°C° 0 mm 2 mps 671 mmHg 42%
    02:00 +25°C° 0 mm 2 mps 671 mmHg 45%
    03:00 +24°C° 0 mm 3 mps 671 mmHg 48%
    04:00 +24°C° 0.1 mm 2 mps 671 mmHg 49%
    05:00 +24°C° 0.1 mm 2 mps 672 mmHg 49%
    06:00 +24°C° 0.1 mm 2 mps 672 mmHg 50%
    07:00 +25°C° 0 mm 3 mps 672 mmHg 46%
    08:00 +26°C° 0 mm 3 mps 673 mmHg 43%
    09:00 +27°C° 0 mm 4 mps 674 mmHg 39%
    10:00 +28°C° 0 mm 3 mps 674 mmHg 37%
    11:00 +29°C° 0 mm 3 mps 674 mmHg 34%
    12:00 +30°C° 0 mm 3 mps 674 mmHg 31%
    13:00 +30°C° 0 mm 4 mps 674 mmHg 30%
    14:00 +30°C° 0 mm 4 mps 674 mmHg 28%
    15:00 +32°C° 0 mm 5 mps 674 mmHg 27%
    16:00 +30°C° 0 mm 5 mps 673 mmHg 29%
    17:00 +29°C° 0 mm 5 mps 673 mmHg 31%
    18:00 +28°C° 0 mm 5 mps 673 mmHg 33%
    19:00 +26°C° 0 mm 4 mps 673 mmHg 37%
    20:00 +25°C° 0 mm 3 mps 674 mmHg 42%
    21:00 +24°C° 0 mm 2 mps 674 mmHg 46%
    22:00 +23°C° 0 mm 2 mps 674 mmHg 47%
    23:00 +23°C° 0 mm 2 mps 673 mmHg 48%

    Day after tomorrow, 19 July, Friday

    Time Temperature Precipitation Wind Pressure Humidity
    00:00 +22°C° 0 mm 1 mps 673 mmHg 49%
    01:00 +22°C° 0 mm 1 mps 673 mmHg 49%
    02:00 +21°C° 0 mm 1 mps 672 mmHg 49%
    03:00 +21°C° 0 mm 1 mps 672 mmHg 49%
    04:00 +22°C° 0 mm 1 mps 673 mmHg 46%
    05:00 +22°C° 0 mm 1 mps 673 mmHg 42%
    06:00 +23°C° 0 mm 1 mps 673 mmHg 39%
    07:00 +25°C° 0 mm 1 mps 674 mmHg 35%
    08:00 +27°C° 0 mm 1 mps 675 mmHg 32%
    09:00 +29°C° 0 mm 1 mps 675 mmHg 28%
    10:00 +30°C° 0 mm 1 mps 676 mmHg 25%
    11:00 +32°C° 0 mm 2 mps 676 mmHg 22%
    12:00 +34°C° 0 mm 3 mps 676 mmHg 19%
    13:00 +34°C° 0 mm 4 mps 676 mmHg 19%
    14:00 +34°C° 0 mm 4 mps 675 mmHg 20%
    15:00 +35°C° 0 mm 5 mps 675 mmHg 20%
    16:00 +34°C° 0 mm 5 mps 675 mmHg 21%
    17:00 +33°C° 0 mm 4 mps 675 mmHg 23%
    18:00 +32°C° 0 mm 4 mps 674 mmHg 24%
    19:00 +30°C° 0 mm 3 mps 674 mmHg 28%
    20:00 +28°C° 0 mm 3 mps 674 mmHg 31%
    21:00 +27°C° 0 mm 3 mps 674 mmHg 34%
    22:00 +26°C° 0 mm 2 mps 674 mmHg 37%
    23:00 +26°C° 0 mm 2 mps 673 mmHg 39%

    20 July, Saturday

    Time Temperature Precipitation Wind Pressure Humidity
    00:00 +25°C° 0 mm 2 mps 673 mmHg 42%
    01:00 +25°C° 0 mm 1 mps 673 mmHg 43%
    02:00 +24°C° 0 mm 1 mps 673 mmHg 45%
    03:00 +24°C° 0 mm 1 mps 672 mmHg 46%
    04:00 +24°C° 0 mm 1 mps 673 mmHg 44%
    05:00 +25°C° 0 mm 1 mps 673 mmHg 42%
    06:00 +26°C° 0 mm 1 mps 674 mmHg 40%
    07:00 +28°C° 0 mm 3 mps 674 mmHg 36%
    08:00 +29°C° 0 mm 4 mps 675 mmHg 33%
    09:00 +32°C° 0 mm 5 mps 676 mmHg 29%
    10:00 +33°C° 0 mm 5 mps 676 mmHg 28%
    11:00 +34°C° 0 mm 6 mps 676 mmHg 26%
    12:00 +35°C° 0 mm 6 mps 676 mmHg 24%
    13:00 +36°C° 0 mm 6 mps 676 mmHg 24%
    14:00 +36°C° 0 mm 5 mps 676 mmHg 23%
    15:00 +36°C° 0 mm 5 mps 676 mmHg 23%
    16:00 +35°C° 0 mm 5 mps 676 mmHg 25%
    17:00 +34°C° 0 mm 4 mps 676 mmHg 27%
    18:00 +33°C° 0 mm 4 mps 676 mmHg 29%
    19:00 +31°C° 0.2 mm 3 mps 676 mmHg 33%
    20:00 +30°C° 0.2 mm 2 mps 676 mmHg 36%
    21:00 +28°C° 0.2 mm 1 mps 676 mmHg 39%
    22:00 +27°C° 0 mm 1 mps 675 mmHg 41%
    23:00 +27°C° 0 mm 1 mps 675 mmHg 42%

    21 July, Sunday

    Time Temperature Precipitation Wind Pressure Humidity
    00:00 +24°C° 0 mm 0 mps 675 mmHg 43%
    01:00 +23°C° 0 mm 0 mps 675 mmHg 45%
    02:00 +23°C° 0 mm 0 mps 674 mmHg 46%
    03:00 +22°C° 0 mm 0 mps 674 mmHg 48%
    04:00 +23°C° 0 mm 0 mps 674 mmHg 45%
    05:00 +24°C° 0 mm 0 mps 675 mmHg 42%
    06:00 +27°C° 0 mm 1 mps 676 mmHg 40%
    07:00 +28°C° 0 mm 1 mps 676 mmHg 34%
    08:00 +30°C° 0 mm 1 mps 677 mmHg 29%
    09:00 +31°C° 0 mm 2 mps 677 mmHg 24%
    10:00 +32°C° 0 mm 2 mps 677 mmHg 20%
    11:00 +34°C° 0 mm 3 mps 678 mmHg 17%
    12:00 +36°C° 0 mm 3 mps 678 mmHg 14%
    13:00 +36°C° 0 mm 4 mps 678 mmHg 14%
    14:00 +36°C° 0 mm 4 mps 677 mmHg 14%
    15:00 +36°C° 0 mm 5 mps 677 mmHg 14%
    16:00 +35°C° 0 mm 5 mps 677 mmHg 17%
    17:00 +34°C° 0 mm 5 mps 677 mmHg 21%
    18:00 +33°C° 0 mm 6 mps 676 mmHg 24%
    19:00 +32°C° 0 mm 5 mps 676 mmHg 29%
    20:00 +29°C° 0 mm 3 mps 676 mmHg 33%
    21:00 +27°C° 0 mm 2 mps 676 mmHg 37%
    22:00 +26°C° 0 mm 2 mps 676 mmHg 37%
    23:00 +26°C° 0 mm 2 mps 675 mmHg 37%

    22 July, Monday

    Time Temperature Precipitation Wind Pressure Humidity
    00:00 +25°C° 0 mm 1 mps 675 mmHg 38%
    01:00 +24°C° 0 mm 1 mps 675 mmHg 38%
    02:00 +24°C° 0 mm 1 mps 675 mmHg 38%
    03:00 +23°C° 0 mm 1 mps 674 mmHg 38%
    04:00 +24°C° 0 mm 1 mps 675 mmHg 37%
    05:00 +25°C° 0 mm 1 mps 675 mmHg 35%
    06:00 +25°C° 0 mm 1 mps 675 mmHg 34%
    07:00 +27°C° 0 mm 1 mps 676 mmHg 33%
    08:00 +28°C° 0 mm 1 mps 677 mmHg 32%
    09:00 +29°C° 0 mm 1 mps 677 mmHg 31%
    10:00 +31°C° 0 mm 1 mps 677 mmHg 27%
    11:00 +32°C° 0 mm 1 mps 677 mmHg 24%
    12:00 +33°C° 0 mm 1 mps 677 mmHg 21%
    13:00 +34°C° 0 mm 2 mps 677 mmHg 19%
    14:00 +35°C° 0 mm 3 mps 677 mmHg 18%
    15:00 +36°C° 0 mm 4 mps 676 mmHg 16%
    16:00 +34°C° 0 mm 5 mps 676 mmHg 18%
    17:00 +33°C° 0 mm 5 mps 676 mmHg 19%
    18:00 +32°C° 0 mm 6 mps 675 mmHg 21%
    19:00 +30°C° 0 mm 5 mps 675 mmHg 24%
    20:00 +29°C° 0 mm 3 mps 675 mmHg 27%
    21:00 +27°C° 0 mm 2 mps 675 mmHg 29%
    22:00 +26°C° 0 mm 1 mps 675 mmHg 31%
    23:00 +26°C° 0 mm 1 mps 674 mmHg 32%
    Show more